Meteorología y climatología de Navarra
Datos de la estación - Meteo Navarra

Estación de Goizueta GN

Altitud 142 m.


Datos desde el 09/11/2019 hasta el 10/11/2019 en horario solar
Los datos son PROVISIONALES

Anterior Página 1 de 1 Siguiente Descargar: Formato para Excel 2000 o superior   Formato csv   Formato para OpenOffice Calc
Fecha Temperatura Humedad relativa Radiación global Insolación Precipitación Vel. viento 10 m Vel. viento 10 m Dir. viento 10 m
ºC % W/m² s l/m² m/s km/h º
09/11/2019 0:00 8.0 98 - - - - 0.1 - - - - - -
09/11/2019 0:10 8.1 98 - - - - 0.0 - - - - - -
09/11/2019 0:20 8.0 99 - - - - 0.0 - - - - - -
09/11/2019 0:30 8.2 99 - - - - 0.1 - - - - - -
09/11/2019 0:40 8.2 99 - - - - 0.1 - - - - - -
09/11/2019 0:50 8.2 99 - - - - 3.3 - - - - - -
09/11/2019 1:00 8.0 99 - - - - 1.5 - - - - - -
09/11/2019 1:10 7.8 98 - - - - 1.5 - - - - - -
09/11/2019 1:20 7.9 99 - - - - 0.3 - - - - - -
09/11/2019 1:30 7.9 99 - - - - 0.0 - - - - - -
09/11/2019 1:40 7.9 100 - - - - 0.5 - - - - - -
09/11/2019 1:50 8.0 100 - - - - 0.6 - - - - - -
09/11/2019 2:00 8.0 100 - - - - 0.4 - - - - - -
09/11/2019 2:10 8.0 100 - - - - 0.0 - - - - - -
09/11/2019 2:20 8.0 100 - - - - 0.0 - - - - - -
09/11/2019 2:30 8.0 100 - - - - 0.4 - - - - - -
09/11/2019 2:40 8.1 100 - - - - 0.9 - - - - - -
09/11/2019 2:50 8.1 100 - - - - 1.0 - - - - - -
09/11/2019 3:00 8.1 100 - - - - 0.0 - - - - - -
09/11/2019 3:10 8.1 100 - - - - 0.0 - - - - - -
09/11/2019 3:20 8.2 100 - - - - 0.0 - - - - - -
09/11/2019 3:30 8.1 100 - - - - 0.0 - - - - - -
09/11/2019 3:40 8.1 100 - - - - 0.0 - - - - - -
09/11/2019 3:50 8.2 100 - - - - 0.0 - - - - - -
09/11/2019 4:00 8.2 100 - - - - 0.5 - - - - - -
09/11/2019 4:10 8.2 100 - - - - 0.4 - - - - - -
09/11/2019 4:20 8.3 100 - - - - 0.1 - - - - - -
09/11/2019 4:30 8.3 100 - - - - 0.4 - - - - - -
09/11/2019 4:40 8.3 100 - - - - 0.4 - - - - - -
09/11/2019 4:50 8.3 100 - - - - 0.2 - - - - - -
09/11/2019 5:00 8.3 100 - - - - 0.0 - - - - - -
09/11/2019 5:10 8.3 100 - - - - 0.0 - - - - - -
09/11/2019 5:20 8.2 100 - - - - 0.0 - - - - - -
09/11/2019 5:30 8.2 100 - - - - 0.0 - - - - - -
09/11/2019 5:40 8.0 100 - - - - 0.0 - - - - - -
09/11/2019 5:50 8.0 100 - - - - 0.0 - - - - - -
09/11/2019 6:00 8.0 100 - - - - 0.0 - - - - - -
09/11/2019 6:10 7.8 100 - - - - 0.0 - - - - - -
09/11/2019 6:20 8.0 100 - - - - 0.0 - - - - - -
09/11/2019 6:30 7.9 100 - - - - 0.0 - - - - - -
09/11/2019 6:40 7.9 100 - - - - 0.0 - - - - - -
09/11/2019 6:50 7.8 100 - - - - 0.0 - - - - - -
09/11/2019 7:00 7.9 100 - - - - 0.0 - - - - - -
09/11/2019 7:10 8.0 100 - - - - 0.7 - - - - - -
09/11/2019 7:20 8.1 100 - - - - 0.1 - - - - - -
09/11/2019 7:30 8.1 100 - - - - 0.1 - - - - - -
09/11/2019 7:40 8.1 100 - - - - 0.2 - - - - - -
09/11/2019 7:50 8.3 100 - - - - 0.0 - - - - - -
09/11/2019 8:00 8.4 100 - - - - 0.0 - - - - - -
09/11/2019 8:10 8.4 100 - - - - 0.1 - - - - - -
09/11/2019 8:20 8.5 100 - - - - 0.1 - - - - - -
09/11/2019 8:30 8.6 100 - - - - 0.0 - - - - - -
09/11/2019 8:40 8.8 100 - - - - 0.3 - - - - - -
09/11/2019 8:50 8.8 100 - - - - 0.3 - - - - - -
09/11/2019 9:00 9.0 100 - - - - 0.0 - - - - - -
09/11/2019 9:10 9.0 100 - - - - 0.1 - - - - - -
09/11/2019 9:20 9.1 100 - - - - 0.1 - - - - - -
09/11/2019 9:30 9.3 100 - - - - 0.1 - - - - - -
09/11/2019 9:40 9.3 100 - - - - 0.0 - - - - - -
09/11/2019 9:50 9.2 100 - - - - 0.0 - - - - - -
09/11/2019 10:00 9.3 100 - - - - 0.0 - - - - - -
09/11/2019 10:10 9.4 100 - - - - 0.1 - - - - - -
09/11/2019 10:20 9.6 100 - - - - 0.0 - - - - - -
09/11/2019 10:30 9.8 100 - - - - 0.0 - - - - - -
09/11/2019 10:40 9.9 100 - - - - 0.0 - - - - - -
09/11/2019 10:50 10.2 99 - - - - 0.0 - - - - - -
09/11/2019 11:00 10.4 98 - - - - 0.0 - - - - - -
09/11/2019 11:10 10.3 98 - - - - 0.0 - - - - - -
09/11/2019 11:20 10.5 98 - - - - 0.0 - - - - - -
09/11/2019 11:30 10.5 98 - - - - 0.0 - - - - - -
09/11/2019 11:40 10.6 98 - - - - 0.1 - - - - - -
09/11/2019 11:50 10.7 97 - - - - 0.0 - - - - - -
09/11/2019 12:00 10.7 97 - - - - 0.0 - - - - - -
09/11/2019 12:10 10.6 97 - - - - 0.0 - - - - - -
09/11/2019 12:20 10.2 94 - - - - 0.1 - - - - - -
09/11/2019 12:30 10.4 97 - - - - 0.0 - - - - - -
09/11/2019 12:40 10.5 98 - - - - 0.0 - - - - - -
09/11/2019 12:50 10.5 98 - - - - 0.0 - - - - - -
09/11/2019 13:00 10.5 95 - - - - 0.0 - - - - - -
09/11/2019 13:10 10.7 89 - - - - 0.0 - - - - - -
09/11/2019 13:20 10.9 85 - - - - 0.0 - - - - - -
09/11/2019 13:30 10.8 85 - - - - 0.0 - - - - - -
09/11/2019 13:40 10.6 90 - - - - 0.4 - - - - - -
09/11/2019 13:50 10.3 95 - - - - 0.6 - - - - - -
09/11/2019 14:00 9.9 97 - - - - 0.2 - - - - - -
09/11/2019 14:10 9.9 97 - - - - 0.2 - - - - - -
09/11/2019 14:20 9.8 97 - - - - 0.9 - - - - - -
09/11/2019 14:30 9.8 98 - - - - 0.3 - - - - - -
09/11/2019 14:40 9.9 98 - - - - 0.1 - - - - - -
09/11/2019 14:50 9.8 99 - - - - 0.1 - - - - - -
09/11/2019 15:00 9.9 99 - - - - 0.0 - - - - - -
09/11/2019 15:10 9.9 98 - - - - 0.1 - - - - - -
09/11/2019 15:20 10.0 99 - - - - 0.0 - - - - - -
09/11/2019 15:30 10.0 99 - - - - 0.0 - - - - - -
09/11/2019 15:40 10.4 95 - - - - 0.0 - - - - - -
09/11/2019 15:50 11.0 89 - - - - 0.0 - - - - - -
09/11/2019 16:00 11.1 89 - - - - 0.0 - - - - - -
09/11/2019 16:10 11.4 88 - - - - 0.0 - - - - - -
09/11/2019 16:20 11.8 86 - - - - 0.0 - - - - - -
09/11/2019 16:30 11.4 91 - - - - 0.2 - - - - - -
09/11/2019 16:40 11.6 86 - - - - 0.1 - - - - - -
09/11/2019 16:50 11.5 88 - - - - 0.0 - - - - - -
09/11/2019 17:00 10.9 92 - - - - 0.0 - - - - - -
09/11/2019 17:10 10.9 89 - - - - 0.4 - - - - - -
09/11/2019 17:20 11.5 86 - - - - 0.4 - - - - - -
09/11/2019 17:30 11.1 89 - - - - 0.0 - - - - - -
09/11/2019 17:40 10.6 95 - - - - 0.3 - - - - - -
09/11/2019 17:50 10.9 87 - - - - 0.1 - - - - - -
09/11/2019 18:00 10.3 92 - - - - 0.7 - - - - - -
09/11/2019 18:10 10.5 90 - - - - 0.4 - - - - - -
09/11/2019 18:20 10.3 91 - - - - 0.9 - - - - - -
09/11/2019 18:30 10.0 95 - - - - 0.5 - - - - - -
09/11/2019 18:40 9.7 98 - - - - 0.9 - - - - - -
09/11/2019 18:50 9.7 96 - - - - 1.5 - - - - - -
09/11/2019 19:00 9.5 92 - - - - 1.3 - - - - - -
09/11/2019 19:10 9.1 94 - - - - 1.3 - - - - - -
09/11/2019 19:20 8.7 92 - - - - 1.4 - - - - - -
09/11/2019 19:30 8.4 93 - - - - 0.9 - - - - - -
09/11/2019 19:40 8.4 94 - - - - 1.0 - - - - - -
09/11/2019 19:50 8.1 95 - - - - 0.7 - - - - - -
09/11/2019 20:00 8.1 95 - - - - 0.2 - - - - - -
09/11/2019 20:10 8.1 95 - - - - 0.9 - - - - - -
09/11/2019 20:20 8.2 98 - - - - 1.1 - - - - - -
09/11/2019 20:30 8.1 99 - - - - 1.7 - - - - - -
09/11/2019 20:40 8.1 99 - - - - 1.0 - - - - - -
09/11/2019 20:50 8.1 99 - - - - 0.6 - - - - - -
09/11/2019 21:00 8.1 99 - - - - 0.4 - - - - - -
09/11/2019 21:10 8.0 99 - - - - 0.1 - - - - - -
09/11/2019 21:20 8.0 99 - - - - 0.5 - - - - - -
09/11/2019 21:30 7.8 99 - - - - 1.0 - - - - - -
09/11/2019 21:40 7.8 99 - - - - 0.1 - - - - - -
09/11/2019 21:50 7.7 99 - - - - 0.0 - - - - - -
09/11/2019 22:00 7.6 99 - - - - 0.0 - - - - - -
09/11/2019 22:10 7.3 99 - - - - 0.1 - - - - - -
09/11/2019 22:20 7.2 99 - - - - 0.0 - - - - - -
09/11/2019 22:30 7.3 99 - - - - 0.0 - - - - - -
09/11/2019 22:40 7.4 100 - - - - 0.0 - - - - - -
09/11/2019 22:50 7.3 100 - - - - 0.0 - - - - - -
09/11/2019 23:00 7.2 100 - - - - 0.0 - - - - - -
09/11/2019 23:10 7.1 100 - - - - 0.0 - - - - - -
09/11/2019 23:20 7.0 100 - - - - 0.0 - - - - - -
09/11/2019 23:30 7.1 100 - - - - 0.4 - - - - - -
09/11/2019 23:40 7.3 100 - - - - 0.0 - - - - - -
09/11/2019 23:50 7.3 100 - - - - 0.0 - - - - - -
Anterior Página 1 de 1 Siguiente

NOTA: Tipo de datos según el color:
   - Valores diarios o 10 minutos correctos
   - Valores diarios calculados a partir de un número de datos 10 minutos menor que 144 y mayor que 120, o de un número de datos semihorarios menor que 48 y mayor que 40 (caso de las estaciones de Riegos de Navarra y del MARM)
   - Valores diez minutos estimados


Contacto        Enlaces        Aviso legal